• In Latvia
  • List of Countries
  • For 7 days
  • Water Temperature
  • Satellite Maps
  • Weather Map
  • Weather Widgets
  • user-avatar
    Login

    Hourly Weather Fier

    Today, 19 January, Thursday

    Time Temperature Precipitation Wind Pressure Humidity
    00:00 +6°C° 0.4 mm 5 mps 761 mmHg 86%
    01:00 +5°C° 0 mm 5 mps 761 mmHg 85%
    02:00 +5°C° 0.2 mm 5 mps 761 mmHg 85%
    03:00 +5°C° 0.2 mm 5 mps 762 mmHg 85%
    04:00 +3°C° 0.2 mm 6 mps 762 mmHg 84%
    05:00 +3°C° 0.1 mm 6 mps 763 mmHg 84%
    06:00 +3°C° 0.1 mm 5 mps 763 mmHg 83%
    07:00 +3°C° 0 mm 5 mps 763 mmHg 83%
    08:00 +5°C° 0.1 mm 5 mps 764 mmHg 80%
    09:00 +6°C° 0.1 mm 5 mps 764 mmHg 77%
    10:00 +7°C° 0.1 mm 5 mps 764 mmHg 74%
    11:00 +8°C° 0 mm 5 mps 765 mmHg 73%
    12:00 +8°C° 0 mm 5 mps 765 mmHg 72%
    13:00 +10°C° 0 mm 4 mps 765 mmHg 72%
    14:00 +10°C° 0.2 mm 4 mps 765 mmHg 75%
    15:00 +8°C° 0.2 mm 4 mps 765 mmHg 77%
    16:00 +8°C° 0.2 mm 4 mps 765 mmHg 79%
    17:00 +7°C° 0.1 mm 4 mps 766 mmHg 80%
    18:00 +6°C° 0.1 mm 4 mps 766 mmHg 81%
    19:00 +5°C° 0.1 mm 4 mps 767 mmHg 83%
    20:00 +4°C° 0 mm 4 mps 767 mmHg 82%
    21:00 +4°C° 0 mm 4 mps 768 mmHg 82%
    22:00 +4°C° 0 mm 4 mps 769 mmHg 81%
    23:00 +3°C° 0 mm 4 mps 769 mmHg 81%

    Tomorrow, 20 January, Friday

    Time Temperature Precipitation Wind Pressure Humidity
    00:00 +3°C° 0 mm 4 mps 769 mmHg 81%
    01:00 +3°C° 0 mm 4 mps 769 mmHg 81%
    02:00 +3°C° 0 mm 4 mps 770 mmHg 81%
    03:00 +3°C° 0 mm 4 mps 770 mmHg 80%
    04:00 +3°C° 0 mm 4 mps 770 mmHg 80%
    05:00 +3°C° 0 mm 4 mps 770 mmHg 80%
    06:00 +1°C° 0 mm 4 mps 770 mmHg 80%
    07:00 +1°C° 0 mm 4 mps 771 mmHg 79%
    08:00 +4°C° 0 mm 3 mps 771 mmHg 76%
    09:00 +5°C° 0 mm 3 mps 771 mmHg 72%
    10:00 +8°C° 0 mm 3 mps 771 mmHg 68%
    11:00 +9°C° 0 mm 3 mps 771 mmHg 66%
    12:00 +10°C° 0 mm 3 mps 771 mmHg 63%
    13:00 +12°C° 0 mm 2 mps 771 mmHg 60%
    14:00 +10°C° 0 mm 2 mps 771 mmHg 64%
    15:00 +9°C° 0 mm 2 mps 771 mmHg 69%
    16:00 +8°C° 0 mm 2 mps 771 mmHg 73%
    17:00 +7°C° 0 mm 2 mps 771 mmHg 75%
    18:00 +6°C° 0 mm 2 mps 771 mmHg 77%
    19:00 +4°C° 0 mm 3 mps 771 mmHg 80%
    20:00 +4°C° 0 mm 3 mps 771 mmHg 80%
    21:00 +3°C° 0 mm 3 mps 772 mmHg 80%
    22:00 +3°C° 0 mm 3 mps 772 mmHg 80%
    23:00 +3°C° 0 mm 3 mps 772 mmHg 79%

    Day after tomorrow, 21 January, Saturday

    Time Temperature Precipitation Wind Pressure Humidity
    00:00 +3°C° 0 mm 3 mps 772 mmHg 79%
    01:00 +3°C° 0 mm 3 mps 772 mmHg 78%
    02:00 +2°C° 0 mm 3 mps 772 mmHg 78%
    03:00 +2°C° 0 mm 3 mps 771 mmHg 77%
    04:00 +2°C° 0 mm 3 mps 771 mmHg 76%
    05:00 +2°C° 0 mm 3 mps 771 mmHg 76%
    06:00 +2°C° 0 mm 3 mps 771 mmHg 75%
    07:00 +2°C° 0 mm 3 mps 771 mmHg 75%
    08:00 +5°C° 0 mm 2 mps 771 mmHg 70%
    09:00 +7°C° 0 mm 2 mps 771 mmHg 65%
    10:00 +9°C° 0 mm 2 mps 771 mmHg 61%
    11:00 +9°C° 0 mm 2 mps 771 mmHg 58%
    12:00 +11°C° 0 mm 1 mps 770 mmHg 56%
    13:00 +12°C° 0 mm 1 mps 770 mmHg 54%
    14:00 +11°C° 0 mm 1 mps 770 mmHg 60%
    15:00 +10°C° 0 mm 1 mps 770 mmHg 65%
    16:00 +8°C° 0 mm 2 mps 769 mmHg 71%
    17:00 +7°C° 0 mm 2 mps 770 mmHg 74%
    18:00 +6°C° 0 mm 2 mps 770 mmHg 77%
    19:00 +5°C° 0 mm 2 mps 770 mmHg 79%
    20:00 +5°C° 0 mm 2 mps 770 mmHg 79%
    21:00 +3°C° 0 mm 3 mps 770 mmHg 79%
    22:00 +3°C° 0 mm 3 mps 771 mmHg 79%
    23:00 +3°C° 0 mm 3 mps 771 mmHg 78%

    22 January, Sunday

    Time Temperature Precipitation Wind Pressure Humidity
    00:00 +3°C° 0 mm 3 mps 771 mmHg 78%
    01:00 +3°C° 0 mm 3 mps 771 mmHg 77%
    02:00 +2°C° 0 mm 3 mps 771 mmHg 76%
    03:00 +2°C° 0 mm 3 mps 771 mmHg 75%
    04:00 +2°C° 0 mm 3 mps 771 mmHg 74%
    05:00 +2°C° 0 mm 3 mps 771 mmHg 73%
    06:00 +2°C° 0 mm 3 mps 771 mmHg 73%
    07:00 +2°C° 0 mm 3 mps 771 mmHg 72%
    08:00 +4°C° 0 mm 3 mps 771 mmHg 68%
    09:00 +7°C° 0 mm 3 mps 771 mmHg 64%
    10:00 +8°C° 0 mm 3 mps 771 mmHg 60%
    11:00 +9°C° 0 mm 3 mps 771 mmHg 58%
    12:00 +10°C° 0 mm 3 mps 770 mmHg 56%
    13:00 +12°C° 0 mm 2 mps 770 mmHg 54%
    14:00 +10°C° 0 mm 2 mps 770 mmHg 59%
    15:00 +9°C° 0 mm 2 mps 770 mmHg 64%
    16:00 +9°C° 0 mm 2 mps 770 mmHg 69%
    17:00 +8°C° 0 mm 2 mps 770 mmHg 72%
    18:00 +5°C° 0 mm 3 mps 770 mmHg 74%
    19:00 +4°C° 0 mm 3 mps 770 mmHg 77%
    20:00 +4°C° 0 mm 3 mps 771 mmHg 77%
    21:00 +4°C° 0 mm 3 mps 771 mmHg 76%
    22:00 +4°C° 0 mm 3 mps 771 mmHg 75%
    23:00 +3°C° 0 mm 4 mps 771 mmHg 75%

    23 January, Monday

    Time Temperature Precipitation Wind Pressure Humidity
    00:00 +3°C° 0 mm 4 mps 770 mmHg 75%
    01:00 +3°C° 0 mm 4 mps 770 mmHg 74%
    02:00 +3°C° 0 mm 4 mps 770 mmHg 74%
    03:00 +3°C° 0 mm 3 mps 769 mmHg 74%
    04:00 +3°C° 0 mm 3 mps 769 mmHg 74%
    05:00 +3°C° 0 mm 4 mps 769 mmHg 75%
    06:00 +3°C° 0 mm 4 mps 768 mmHg 75%
    07:00 +3°C° 0 mm 4 mps 768 mmHg 76%
    08:00 +4°C° 0 mm 4 mps 768 mmHg 72%
    09:00 +6°C° 0 mm 4 mps 768 mmHg 68%
    10:00 +7°C° 0 mm 4 mps 768 mmHg 64%
    11:00 +8°C° 0 mm 4 mps 767 mmHg 65%
    12:00 +8°C° 0 mm 4 mps 767 mmHg 65%
    13:00 +10°C° 0 mm 4 mps 766 mmHg 66%
    14:00 +8°C° 0.6 mm 4 mps 766 mmHg 71%
    15:00 +7°C° 0.6 mm 4 mps 765 mmHg 77%
    16:00 +6°C° 0.6 mm 4 mps 765 mmHg 82%
    17:00 +6°C° 0.7 mm 4 mps 765 mmHg 83%
    18:00 +6°C° 0.7 mm 4 mps 764 mmHg 85%
    19:00 +5°C° 0.7 mm 4 mps 764 mmHg 86%
    20:00 +5°C° 1.1 mm 4 mps 764 mmHg 86%
    21:00 +5°C° 1.1 mm 4 mps 763 mmHg 87%
    22:00 +5°C° 1.1 mm 4 mps 763 mmHg 87%
    23:00 +5°C° 1.6 mm 4 mps 762 mmHg 88%

    24 January, Tuesday

    Time Temperature Precipitation Wind Pressure Humidity
    00:00 +5°C° 1.6 mm 5 mps 762 mmHg 89%
    01:00 +5°C° 1.6 mm 5 mps 761 mmHg 89%
    02:00 +5°C° 1.4 mm 5 mps 760 mmHg 89%
    03:00 +5°C° 1.4 mm 5 mps 759 mmHg 89%
    04:00 +5°C° 1.4 mm 4 mps 759 mmHg 89%
    05:00 +5°C° 0.9 mm 4 mps 759 mmHg 89%
    06:00 +5°C° 0.9 mm 4 mps 758 mmHg 88%
    07:00 +6°C° 0.9 mm 5 mps 758 mmHg 87%
    08:00 +6°C° 0.4 mm 5 mps 759 mmHg 86%
    09:00 +7°C° 0.4 mm 5 mps 759 mmHg 84%
    10:00 +7°C° 0.4 mm 5 mps 759 mmHg 83%
    11:00 +8°C° 0.1 mm 5 mps 759 mmHg 82%
    12:00 +9°C° 0.1 mm 5 mps 758 mmHg 81%
    13:00 +9°C° 0.1 mm 6 mps 758 mmHg 81%
    14:00 +9°C° 0.1 mm 5 mps 758 mmHg 83%
    15:00 +9°C° 0.1 mm 5 mps 758 mmHg 84%
    16:00 +9°C° 0.1 mm 5 mps 758 mmHg 86%
    17:00 +8°C° 0.1 mm 5 mps 758 mmHg 87%
    18:00 +7°C° 0.1 mm 5 mps 759 mmHg 89%
    19:00 +6°C° 0.1 mm 4 mps 759 mmHg 90%
    20:00 +6°C° 0.1 mm 4 mps 759 mmHg 89%
    21:00 +6°C° 0.1 mm 4 mps 759 mmHg 89%
    22:00 +5°C° 0.1 mm 4 mps 759 mmHg 89%
    23:00 +5°C° 0.1 mm 4 mps 759 mmHg 88%
    Show more